Location: Kailua
(21.4020°N, 157.7390°W)
Time: 18:17:19
(UTC-10:00)

Cosmos 2297 Rocket - Visible Passes

Search period start: 26 November 2014 00:00
Search period end: 06 December 2014 00:00
Orbit: 838 x 845 km, 71.0° (Epoch: 25 November)

Date Brightness Start Highest point End Pass type
(mag) Time Alt. Az. Time Alt. Az. Time Alt. Az.
01 Dec 4.7 20:29:17 10° S 20:29:34 12° S 20:29:34 12° S visible
02 Dec 4.1 20:14:17 10° S 20:15:51 20° S 20:15:51 20° S visible
03 Dec 3.4 19:59:17 10° S 20:02:11 31° S 20:02:11 31° S visible
04 Dec 2.6 19:44:18 10° S 19:48:33 48° SSE 19:48:33 48° SSE visible
05 Dec 2.2 19:29:19 10° S 19:34:49 57° ESE 19:34:57 57° E visible
